Погода Ганюшкино

Погода Ганюшкино : погода сейчас, прогноз погоды и архив. Всё, что Вы хотите узнать о погоде Ганюшкино!

Хотите узнать прогноз погоды Ганюшкино? Тогда Вам сюда: Погода Ганюшкино

Поиск расширенной информации на нашем сайте:

Другие новости

Новости СМИ2

Главная страница сайта

Новости сайта

03.07.2017

Напоминаем, что на нашем специализированном сайте Метеоцентр.Азия вы можете получить высокодетализированные автоматические прогнозы погоды по пунктам России, СНГ и мира в авиационном формате (включающие направление и скорость ветра, видимость, явления погоды, количество и форму облачности, нижнюю и верхнюю границу облачности).


Погода Ганюшкино - сегодня

Время (UTC), дата Ветер
(°,м/с) 
Видим.   Явления Облачность Т
(°С)
Тd
(°С)
f(%) Тe
(°С)
Pmin
(гПа)
dP
(гПа)
Po
(мм)
O2
(г/м3)
Тmin Tmax R s Состояние
почвы
06 16.06.18 040 (СВ) 10 км    3/0 верхняя 
[Ci fib]
+29.6 +11.3 32 +32  1009.9  0.3  759  274  +15.8         
09 16.06.18 тихо ()   10 км    4/0 верхняя 
[Ci]
+33.2 +19.1 43 +49  1008.9  -1  759  268           
12 16.06.18 190 (Ю) 20000 м    5/0 верхняя 
[Ci]
+32.2 +22.1 55 +56  1008.1  -0.8  758  268           
15 16.06.18 160 (Ю) 20000 м    4/0 верхняя 
[Ci]
+31 +22 59 +54  1007.1  -1  757  268    +33.6       
18 16.06.18 040 (СВ) 10 км    3/0 верхняя 
[Ci fib]
+27.6 +20.3 64 +47  1009  759  273    +33.6       
21 16.06.18 050 (СВ) 10 км    ясно 
+21.8 +13.7 60 +28  1010.1  1.1  759  281           
00 17.06.18 040 (СВ) 10 км    ясно 
+18.7 +12.2 66 +23  1010.7  0.6  760  284           
03 17.06.18 030 (СВ) 10 км    ясно 
+17.8 +12.4 71 +22  1011.3  0.6  761  285           
06 17.06.18 050 (СВ) 10 км    ясно 
+24.8 +11 42 +27  1011.3  761  279  +16.5         
09 17.06.18 070 (В) 10 км    ясно 
+27.4 +12.3 39 +31  1011.1  -0.3  760  276           
12 17.06.18 040 (СВ) 10 км    ясно 
+28.8 +13.1 38 +34  1009.8  -1.3  759  274           
15 17.06.18 210 (ЮЗ) 10 км    ясно 
+26.1 +12.5 43 +30  1009.4  -0.4  759  277    +29.4       
18 17.06.18 280 (З) 10 км    ясно 
+20.6 +14.4 68 +28  1010.5  1.2  760  282    +29.4       
21 17.06.18 050 (СВ) 10 км    ясно 
+17.6 +9.7 60 +19  1010.5  760  286           
00 18.06.18 030 (СВ) 10 км    ясно 
+15 +6.1 55 +16  1010.6  0.1  760  289           
03 18.06.18 050 (СВ) 10 км    ясно 
+18.6 +7.1 47 +20  1010.9  0.3  760  286           
06 18.06.18 070 (В) 10 км    ясно 
+26.1 +11.8 41 +29  1010.8  -0.1  760  277  +13.9         
09 18.06.18 060 (СВ) 10 км    3/3 1000 м 
[Cu hum]
+28.2 +11.8 36 +32  1010.2  -0.6  760  275           
12 18.06.18 190 (Ю) 10 км    4/0 верхняя 
[Ci]
+27.5 +15.4 48 +37  1009.8  -0.5  759  275           
15 18.06.18 200 (Ю) 20000 м    5/0 верхняя 
[Ci fib]
+25.4 +15 53 +34  1009.5  -0.3  759  277    +28.9       
18 18.06.18 270 (З) 10 км    3/0 верхняя 
[Ci fib]
+21 +15.7 72 +31  1010.2  0.8  760  281    +28.9       
21 18.06.18 280 (З) 10 км    ясно 
+20 +15.2 74 +29  1010.1  -0.1  760  282           
00 19.06.18 тихо ()   10 км    ясно 
+15 +12 82 +19  1010  -0.1  760  288           
06 19.06.18 040 (СВ) 10 км    ясно 
+28.4 +12.5 37 +33  1011.8  0.8  761  275  +14.3         
09 19.06.18 030 (СВ) 10 км    ясно 
+30.2 +9.7 28 +31  1011.6  -0.2  761  274           
Время (UTC), дата Ветер
(°,м/с) 
Видим.   Явления Облачность Т
(°С)
Тd
(°С)
f(%) Тe
(°С)
Pmin
(гПа)
dP
(гПа)
Po
(мм)
O2
(г/м3)
Тmin Tmax R s Состояние
почвы

Для получения пояснительной информации подведите курсор к названию столбца.

ПОГОДА Ганюшкино - архив

Всё, что Вы хотите узнать о погоде Ганюшкино - удобно и подробно!

Выберите нужную дату (начиная с 1 января 2015* года) и нажмите кнопку "Найти".
Будут отображены архивные сводки погоды по пункту Ганюшкино, начиная с указанной даты.


Отображать данные в формате CSV (для использования в таблицах Excel)


Внимание! Наш архив погоды предназначен исключительно для личного некоммерческого использования в познавательных целях. Если Вам необходимы официальные справки о состоянии погоды (для производственных, юридических, коммерческих и т.п. целей), обращайтесь в органы Росгидромета.

*Примечание: данная дата относится к архиву по метеостанциям СССР (Россия, СНГ, Балтия).
Архив по метеостанциям Зарубежной Европы и Азии (кроме Китая) хранится 10 дней, по другим регионам земного шара (Китай, Африка, Америка, Австралия, Океания) - 1 день.

Ганюшкино - район местоположения метеостанции


Название, широта, долгота, высота метеостанции:
Ганюшкино 46.6°ш. 49.3°д. -23 м над ур. моря [Казахстан]

Дополнительная информация

В oтличие oт бoльшинства пoгoдных сайтoв мы публикуем пoдрoбную метеoинфoрмацию в детальнoм прoфессиoнальнoм фoрмате.

Характеристики температуры и влажнoсти вoздуха измеряются на высoте 2 м в тени вдали oт зданий и деревьев.
Скoрoсть ветра измеряется на высoте 10 м (на урoвне рoста челoвека скoрoсть ветра ниже в 1.5-2 раза). Если метеoстанция нахoдится в гoрoде или в лесу, тo скoрoсть ветра занижена на 2-4 м/с пo сравнению с oткрытым местoм. Скoрoсть ветра над акватoриями крупных рек и oзёр, а также на вершинах хoлмoв на 2-5 м/с выше, чем в oбычных услoвиях.
Атмoсфернoе давление в разных тoчках местнoсти мoжет значительнo oтличаться oт давления на метеoстанции, в зависимoсти oт услoвий рельефа (при пoдъёме на 10 м давление пoнижается примернo на 1 мм рт.ст.).